Кастр

Франция     43°36′24″N   2°14′12″E
темп.,
°C
ветер,
м/с
пор.,
м/с
влажн.,
%
обл.,
%
осадки,
мм/ч
давл.,
гПа
погр.,
м
16 апреля, пт
пт1623:00+4ююз22610 0.0 102013
02:00+3ю22700 0.0 101913
05:00+1ююз11770 0.0 101911
08:000з12730 0.0 102160
11:00+6зсз34525 0.0 1020655
14:00+10сз553915 0.0 10192098
17:00+11зсз673476 0.0 10182581
20:00+8з5104992 0.0 1018561
17 апреля, сб
сб1723:00+4зсз236815 0.2 102151
02:000ссз11765 0.2 102215
05:00−1зсз239117 0.0 102258
08:00−1зсз24937 0.0 1022142
11:00+5зсз586665 0.0 1021924
14:00+9сз675088 0.0 10191683
17:00+10з684669 0.0 10181800
20:00+7з7127581 0.1 1019893
18 апреля, вс
вс1823:00+5з4886100 0.4 1021472
02:00+2з369565 0.6 1022219
05:00+2з379742 0.0 1022261
08:00+1з379869 0.0 1023253
11:00+7зсз577352 0.0 1022917
14:00+10сз6854100 0.1 10211674
17:00+11зсз685462 0.0 10201386
20:00+9зсз497028 0.0 1020452
19 апреля, пн
пн1923:00+5з238326 0.0 102158
02:00+4зсз11875 0.0 102012
05:00+3зсз018830 0.0 101912
08:00+4всв11845 0.0 101917
11:00+11сз235631 0.0 1017688
14:00+14сз33457 0.0 10151085
17:00+15сз334382 0.0 10141158
20:00+11зсз226799 0.0 101432
20 апреля, вт
вт2023:00+8вюв0170100 0.0 101511
02:00+7вюв017299 0.0 101511
05:00+6зюз1180100 0.0 101512
08:00+7зюз138596 0.0 1015106
11:00+11з237099 0.0 1015613
14:00+14зсз3356100 0.1 10131559
17:00+12з5675100 0.3 1013713
20:00+8зсз3699100 1.7 1014482